Wind_Speed
12 12 12 11 12 12 14 14 15 15 15 15 15 15 15 15 15 15 15 15 15 15 15 16 16 17 18 20 22 21 21 18 15 14 14 14 14 15 17 18 19 19 18 18 18 17 15 13 14 16 14 13 14 14 15 14 13 13 9 10 11 11 12 11 11 10 6 5 5 7 8 8 6 8 6 5 5 4 5 5 5 4 5 5 3 7 10 12
13 12 12 12 12 12 13 14 15 15 15 15 14 14 15 15 15 15 15 15 16 15 15 16 16 17 18 20 19 20 20 17 16 15 14 16 16 16 18 19 20 19 19 18 16 16 14 12 12 14 14 14 15 15 16 15 16 15 9 10 13 12 13 14 12 11 8 6 6 7 8 8 6 8 8 6 6 7 7 6 7 6 6 6 7 9 10 13
13 12 11 11 12 12 13 13 14 15 15 15 15 14 14 14 15 15 15 15 16 16 17 18 17 17 18 20 19 18 18 18 17 10 10 14 14 14 16 19 20 19 19 19 16 16 14 11 12 14 16 16 16 16 17 16 17 18 14 11 13 14 16 16 15 14 11 8 9 9 8 8 7 7 8 7 7 8 8 5 7 7 8 9 10 12 13 16
13 13 12 12 12 12 13 13 14 14 15 16 16 15 14 14 14 15 15 15 16 17 18 18 19 18 18 21 19 17 17 18 9 6 10 13 11 11 13 15 18 19 18 18 17 18 16 13 12 15 16 16 17 17 17 18 16 17 17 13 13 17 17 15 17 16 13 11 13 11 8 9 8 8 9 8 7 9 10 7 5 6 7 11 12 15 17 18
14 14 14 13 13 13 13 14 14 14 15 15 16 16 16 14 14 14 14 15 15 16 17 18 19 18 19 21 19 16 14 10 3 4 8 10 11 9 10 12 14 17 16 16 17 18 17 15 14 16 17 15 16 16 17 23 19 15 17 19 19 20 16 16 18 17 16 14 15 14 10 10 8 9 11 11 10 7 5 6 5 6 6 11 11 14 18 20
16 15 15 14 14 13 14 15 15 15 15 15 15 16 16 15 15 14 13 14 15 15 17 17 18 18 19 21 20 14 7 6 1 6 9 6 10 8 6 9 9 12 13 13 15 16 17 18 17 18 18 15 17 16 18 24 21 14 15 20 25 24 17 17 20 17 18 17 16 16 13 12 11 11 12 14 14 5 1 3 5 7 7 11 12 15 19 21
17 17 16 16 15 15 15 15 15 16 16 16 16 16 17 16 16 15 14 14 14 15 15 16 17 17 20 20 17 10 8 11 10 14 13 7 9 8 6 8 7 8 9 12 14 16 18 20 21 22 18 14 17 19 19 23 23 17 15 19 24 24 21 20 20 18 19 20 19 17 13 14 15 13 11 14 14 7 4 5 7 7 8 13 14 16 19 20
18 17 17 16 16 16 16 16 16 17 17 16 17 17 17 17 17 16 16 15 14 15 14 15 15 16 19 17 13 10 10 11 10 12 13 12 12 10 9 9 10 8 7 12 15 17 20 22 24 23 16 15 18 19 21 20 19 19 18 19 21 23 23 22 20 19 20 20 18 16 14 17 18 13 11 14 13 9 8 7 8 9 10 15 16 18 19 20
18 17 17 17 16 16 17 17 18 18 18 17 18 19 19 20 19 18 17 17 16 16 15 15 14 14 16 13 11 10 7 8 9 8 8 11 15 15 13 11 12 9 7 11 15 17 20 22 25 23 15 17 19 18 21 17 14 18 22 21 17 19 22 22 22 20 20 19 16 15 16 18 17 11 12 15 12 8 9 9 10 11 13 15 16 18 19 21
19 18 17 17 17 17 18 19 19 19 19 19 20 20 21 22 21 19 17 17 18 17 17 16 15 14 12 10 9 7 7 9 9 7 7 9 11 13 13 13 13 10 8 10 14 18 21 20 22 21 13 14 16 16 21 18 13 15 23 24 17 16 20 21 23 20 19 17 17 17 16 17 17 12 11 13 12 10 11 11 12 13 14 15 16 18 19 21
19 18 17 17 18 19 19 19 19 20 20 20 20 21 21 21 20 19 17 17 17 18 18 17 16 13 10 10 10 9 11 12 12 13 13 12 12 11 11 13 14 12 9 10 14 18 19 16 17 18 10 10 14 15 19 21 15 11 18 21 16 14 16 20 22 21 18 14 17 18 15 17 17 15 15 13 15 16 14 13 14 14 14 14 15 17 18 19
18 17 16 17 18 18 19 19 19 19 19 19 20 20 20 19 18 18 18 18 17 18 18 17 16 11 10 13 17 16 16 17 19 19 15 15 15 12 12 13 13 12 10 10 13 17 18 13 14 18 11 8 13 12 15 21 16 9 14 16 15 13 14 20 21 21 19 13 16 16 13 17 16 17 19 15 17 17 15 14 15 15 14 14 15 17 17 16
16 16 17 17 18 18 19 20 19 19 18 19 20 20 20 18 17 17 17 17 17 18 18 17 14 10 11 15 19 20 22 22 22 17 12 13 13 10 12 13 12 13 11 11 11 14 18 13 12 19 14 10 13 7 8 19 17 10 13 12 12 13 14 21 22 21 21 15 17 15 11 15 16 20 21 18 20 19 16 15 15 14 14 14 15 16 16 15
16 16 17 17 18 18 20 20 20 19 19 20 21 20 20 17 16 16 17 17 17 18 17 16 13 8 12 17 20 23 22 19 15 10 6 6 7 6 7 10 11 12 12 11 10 11 16 14 11 16 15 13 11 7 7 15 15 11 12 11 11 11 13 21 23 21 20 16 20 17 13 15 17 22 23 23 23 21 18 17 16 15 14 14 16 16 16 15
16 17 17 17 18 19 20 21 21 20 20 21 21 21 19 17 16 16 16 16 16 17 15 13 10 8 14 20 20 19 14 9 5 3 4 4 5 5 5 7 8 11 12 10 10 11 14 14 13 14 15 13 9 10 10 10 11 11 11 11 12 13 13 19 24 24 21 17 22 19 13 14 17 15 22 23 23 21 19 19 18 17 16 16 16 16 15 14
17 17 17 18 18 19 20 22 22 21 21 22 22 21 18 16 16 16 16 15 14 13 9 7 7 8 12 13 10 9 8 6 4 3 4 3 5 8 8 8 8 11 12 10 9 11 14 15 15 16 17 14 9 11 10 8 10 11 12 13 15 16 13 15 21 28 25 17 20 22 14 12 13 12 21 21 21 22 20 19 20 20 19 17 16 15 14 14
18 18 18 19 19 20 20 21 22 21 22 23 23 20 18 16 16 15 14 12 10 7 4 5 6 8 13 12 9 8 6 6 6 6 7 6 7 9 9 8 9 11 12 10 9 11 16 17 15 14 14 13 11 11 11 12 12 11 14 14 16 20 17 13 16 24 27 19 18 23 19 15 11 13 19 20 21 21 19 20 21 20 19 17 15 14 14 15
18 18 18 19 19 20 20 20 21 21 22 23 22 20 18 16 14 11 8 6 4 1 4 6 5 6 11 11 9 7 4 8 12 13 12 9 7 7 7 8 8 11 13 11 12 14 17 19 15 10 11 12 13 14 14 16 17 16 16 14 15 19 18 17 13 17 25 21 18 20 19 20 13 12 18 20 21 21 21 20 20 20 18 16 15 15 15 16
18 18 18 19 19 19 20 20 21 21 22 22 21 19 14 12 11 5 2 2 1 2 4 5 9 8 9 7 10 10 11 16 20 20 16 11 8 6 6 8 9 14 16 11 13 17 17 15 13 11 12 15 18 20 19 19 20 21 19 15 14 14 15 17 13 15 23 20 18 20 18 20 17 14 17 19 21 21 21 20 17 18 18 17 16 16 16 16
17 17 17 18 18 19 20 20 21 20 22 21 19 16 10 8 8 3 2 6 10 12 14 13 14 18 20 17 17 17 17 18 19 17 13 10 8 6 7 9 12 15 15 11 12 17 17 13 12 15 17 22 25 24 23 18 14 16 18 16 17 15 12 15 13 15 21 17 16 21 19 20 20 17 16 20 21 19 19 19 18 19 19 18 18 17 17 16
19 19 18 16 16 18 19 21 20 19 21 19 14 11 7 8 8 5 8 11 14 15 20 21 19 22 23 22 20 19 18 17 17 16 12 9 8 7 8 12 13 12 14 16 13 15 16 13 15 21 22 23 23 22 21 16 11 13 15 13 15 15 11 13 13 14 19 15 13 19 20 20 20 18 17 19 18 18 20 21 20 21 19 17 17 17 17 15
20 21 21 18 16 17 19 21 20 18 18 14 9 8 7 7 6 7 10 11 15 18 21 22 21 23 23 23 21 17 16 17 18 16 13 14 13 10 10 14 14 12 15 17 13 12 13 14 20 24 21 19 18 20 21 15 12 12 11 10 11 12 10 11 13 14 15 11 11 17 18 17 19 17 16 19 18 18 21 21 20 20 18 17 17 17 16 17
22 22 22 21 18 17 18 20 20 17 14 9 8 9 6 5 5 6 10 12 15 15 17 16 15 18 18 16 13 10 13 15 16 14 12 17 18 16 14 12 15 15 15 17 15 13 11 14 21 21 17 18 19 22 22 14 11 11 10 10 10 12 12 10 12 15 14 10 10 14 13 12 14 14 14 18 19 18 18 19 18 18 18 18 17 15 15 19
23 23 22 20 19 18 19 21 20 14 10 9 10 7 5 6 6 7 11 12 12 8 8 9 8 10 10 9 6 8 12 12 13 12 10 19 20 18 16 13 15 15 15 21 21 16 12 9 15 20 19 20 19 21 22 13 9 11 11 11 10 13 15 10 11 14 12 10 8 8 9 9 12 14 13 14 17 17 16 18 18 18 18 17 16 15 15 19
23 22 22 20 18 18 20 20 15 10 9 9 8 5 5 7 7 7 9 10 8 5 5 5 4 4 4 5 4 6 9 12 14 12 10 18 19 16 15 14 14 14 19 24 20 17 14 6 10 19 18 19 18 17 20 15 9 10 11 12 10 13 16 13 13 14 9 9 11 11 9 9 13 17 15 13 14 16 16 17 18 19 19 17 16 17 18 20
24 22 22 21 18 18 17 13 7 7 9 7 6 5 6 7 7 7 6 6 4 2 4 4 3 4 3 2 3 5 7 7 10 11 12 16 18 15 13 12 12 14 20 20 14 12 12 9 10 16 17 19 18 15 19 18 11 9 11 12 9 9 14 14 15 13 8 8 13 16 12 9 11 16 18 16 15 17 16 15 18 19 19 18 18 19 20 21
24 23 22 21 18 16 14 10 8 9 9 6 5 5 6 6 6 5 4 5 3 1 1 2 3 4 4 3 3 5 5 4 6 10 15 16 16 15 12 11 12 13 15 14 10 10 14 14 13 16 18 18 16 13 17 19 13 7 11 15 13 11 13 15 14 11 8 8 11 16 15 11 10 13 17 19 17 18 18 16 17 18 19 19 20 20 21 21
25 23 22 21 18 14 11 12 12 10 7 6 6 5 4 5 4 3 5 4 1 0 1 2 1 4 5 4 8 10 8 9 7 6 14 16 16 15 12 13 13 14 16 14 11 12 16 16 14 16 17 14 14 14 16 20 14 7 11 14 14 13 13 14 12 10 10 9 9 14 16 11 10 10 14 19 20 19 21 20 17 18 20 22 23 22 21 20
25 23 22 20 17 10 8 9 9 8 6 5 5 5 3 2 2 3 4 4 1 0 1 2 2 4 5 6 10 14 11 9 6 2 10 16 16 12 10 14 14 14 17 17 13 10 10 17 16 13 12 10 14 15 16 20 15 8 12 13 11 11 11 11 10 9 10 9 10 15 17 12 10 10 11 15 19 19 18 17 16 20 24 25 24 22 22 21
25 22 19 17 13 7 4 5 6 6 5 5 5 4 3 1 3 4 4 3 1 0 0 2 2 3 6 9 8 10 9 9 7 5 10 15 16 13 9 12 13 12 14 17 16 7 5 17 17 11 10 9 12 14 15 20 16 11 13 12 10 9 8 8 8 8 9 9 14 18 19 15 11 10 12 13 15 16 15 14 16 21 25 26 24 23 23 23
24 19 15 12 9 5 2 2 4 4 4 5 4 3 3 3 3 5 3 1 2 2 1 2 1 7 9 12 8 6 7 7 8 9 10 11 14 13 9 9 10 10 11 13 15 9 6 14 14 11 12 8 10 12 14 19 18 11 11 10 10 9 7 7 6 7 8 10 14 18 19 17 13 10 12 14 15 16 15 16 18 20 23 26 24 24 24 24
21 15 11 9 7 4 2 0 2 2 2 3 2 3 5 4 4 5 3 1 2 2 2 1 2 6 10 13 12 9 8 6 8 11 11 10 11 11 10 9 9 10 11 11 13 11 8 11 13 12 13 11 10 11 12 16 16 12 12 11 10 9 8 8 9 8 10 8 7 14 19 16 13 11 12 12 14 17 16 16 19 22 24 25 25 24 24 24
17 12 9 8 7 4 1 1 0 0 1 3 3 4 5 5 4 4 5 4 2 4 3 2 6 11 11 11 10 9 8 5 8 11 12 12 10 11 13 12 12 11 9 12 13 11 8 10 15 14 11 14 14 10 11 13 15 14 14 12 11 10 9 10 10 9 11 6 3 9 14 11 11 12 14 12 11 16 20 20 21 24 25 25 25 25 24 24
13 8 7 7 7 5 3 3 1 3 3 3 4 4 4 5 6 4 5 6 5 6 8 7 10 14 11 9 8 6 7 6 9 11 12 12 9 10 11 11 14 12 8 10 12 11 10 9 13 13 10 15 16 11 12 13 14 15 14 13 11 9 9 9 9 9 11 8 7 9 10 9 8 5 8 12 12 15 18 20 20 20 21 22 22 24 24 24
10 6 7 7 7 6 6 4 3 4 4 5 4 4 4 5 5 3 3 5 6 7 11 13 12 12 8 6 6 5 4 5 10 11 9 11 9 9 10 10 13 11 8 10 9 10 13 8 12 15 11 17 17 12 14 14 12 12 12 13 12 9 8 5 3 3 5 6 8 8 7 6 3 3 1 8 13 15 16 17 18 16 15 17 20 23 24 24
6 4 7 7 7 7 6 3 3 4 5 5 4 4 4 5 4 2 2 3 5 8 12 13 8 6 6 1 3 4 4 4 8 9 7 10 9 10 11 10 12 12 9 10 8 9 11 7 13 15 11 16 18 12 13 14 10 9 11 12 12 12 9 5 2 3 0 5 7 8 9 6 3 2 6 10 13 14 14 15 16 16 15 16 19 22 24 24
3 3 5 6 7 6 5 2 3 4 5 5 5 5 5 6 5 3 2 3 7 8 9 8 3 2 5 2 3 5 6 5 7 7 6 8 8 9 12 9 12 13 8 5 6 9 10 6 12 15 11 15 18 12 12 14 10 9 11 11 11 10 9 6 6 4 5 8 6 8 12 10 7 5 8 12 14 15 15 15 15 16 17 17 18 21 23 24
2 1 4 7 8 6 3 2 3 4 4 4 6 7 6 5 6 5 5 7 8 6 5 6 1 2 3 4 3 3 6 6 6 6 6 6 5 8 12 9 10 13 9 5 5 8 10 6 9 15 13 13 15 11 10 13 12 8 9 10 9 8 8 8 7 7 9 9 6 9 12 10 9 7 8 12 14 15 16 16 16 16 17 17 19 20 21 22
2 1 2 8 10 5 1 1 3 3 3 3 5 6 5 8 10 9 10 11 9 5 5 5 2 2 3 5 4 0 5 5 6 6 5 5 4 8 12 9 10 14 10 6 5 6 9 6 7 13 14 13 12 9 8 11 10 7 8 10 9 7 8 9 7 6 8 8 7 9 9 8 9 7 8 11 13 14 15 16 16 16 18 20 21 20 21 23
2 1 1 8 10 5 2 3 4 4 4 4 6 7 7 10 12 12 13 12 7 4 3 3 3 2 3 4 4 2 3 4 6 5 5 5 5 6 11 11 10 13 10 7 5 4 7 6 4 10 15 12 9 9 10 12 11 8 9 10 10 8 7 8 9 7 7 7 7 7 8 6 6 7 9 10 11 13 14 14 14 16 21 24 21 20 22 24
2 1 2 8 9 3 2 5 4 4 4 5 7 8 10 11 12 15 14 9 8 7 5 5 5 4 4 4 2 2 3 4 7 5 3 6 5 4 9 13 12 12 10 6 5 5 5 6 5 9 11 10 9 12 14 13 13 11 9 10 10 10 9 9 10 10 8 7 6 6 8 5 4 6 9 11 10 11 13 15 15 18 23 22 19 18 21 22
4 2 2 7 7 1 3 4 4 4 4 6 8 9 13 12 10 13 12 6 6 8 6 5 5 4 4 3 3 3 4 4 6 5 4 7 6 3 10 18 16 12 9 5 5 5 2 3 6 8 9 10 10 13 16 14 15 13 10 10 10 10 10 9 8 9 8 8 5 4 6 3 4 4 8 10 9 7 6 8 10 12 15 16 16 17 18 20
6 3 2 7 5 1 3 3 4 3 4 9 13 13 15 11 8 10 9 6 4 4 4 4 4 4 2 2 4 4 4 4 5 6 4 6 7 5 10 19 19 13 9 5 5 5 2 3 7 8 9 10 8 10 13 12 13 13 11 11 11 11 12 9 7 6 7 9 7 4 5 3 4 2 3 3 4 3 3 2 4 5 7 11 13 15 17 20
6 3 2 6 4 2 3 3 4 5 7 13 15 14 12 8 8 9 8 7 5 3 3 3 3 3 3 3 5 6 4 4 5 5 3 4 6 5 8 16 18 13 9 5 5 6 5 4 6 8 9 9 7 8 11 12 12 10 11 13 13 13 14 11 8 6 7 11 12 8 6 4 4 5 3 2 3 3 2 3 6 6 8 12 14 16 19 21
6 3 2 2 2 3 5 4 5 6 9 12 13 13 11 8 8 8 8 8 7 4 4 4 4 4 4 4 6 7 6 5 4 3 3 4 4 4 6 14 17 14 11 8 5 6 5 4 5 7 9 10 9 9 9 11 11 9 11 14 14 15 17 13 8 7 7 11 13 11 7 5 6 8 8 6 5 3 3 5 6 7 10 13 16 19 20 20
5 2 0 1 1 5 7 7 6 5 7 9 9 10 10 10 10 8 7 6 3 3 5 5 6 6 4 4 5 7 7 6 5 4 3 4 5 4 5 12 17 17 12 9 8 6 3 4 5 5 5 7 9 8 7 9 11 11 14 16 15 15 16 12 9 8 8 8 10 12 10 9 9 11 11 8 6 5 5 6 7 8 10 12 16 19 20 20
4 3 3 3 2 4 5 5 4 4 7 8 5 6 9 11 12 7 5 4 2 4 3 3 4 5 3 2 4 5 5 4 6 5 3 4 4 4 5 10 16 17 11 9 11 8 3 5 6 6 6 5 4 6 8 11 15 15 16 17 15 15 16 14 11 10 9 7 8 10 12 14 13 13 12 7 4 3 4 5 6 9 11 13 15 17 18 20
4 3 3 3 3 2 2 4 7 9 11 8 3 4 8 12 13 9 6 6 4 3 3 2 3 6 6 3 2 4 4 3 4 2 3 4 4 5 7 8 12 16 12 10 12 8 5 5 4 5 7 6 4 3 5 9 13 15 17 18 17 18 18 17 14 13 11 9 7 7 11 14 14 18 18 5 3 2 1 3 6 9 12 15 17 18 19 22
5 4 2 3 4 6 7 9 11 11 10 7 3 4 8 12 13 12 8 7 8 3 5 4 4 5 6 6 4 5 4 1 1 1 2 4 4 6 8 6 8 14 13 10 10 7 6 4 2 4 6 6 6 6 6 8 10 13 16 18 18 19 20 19 16 16 15 12 10 9 9 11 14 19 18 3 5 3 2 1 6 9 13 16 17 19 21 23
5 4 5 7 8 8 9 9 9 8 6 6 5 5 9 11 12 14 11 8 10 4 4 5 5 5 5 7 6 7 6 4 3 3 4 5 4 4 6 4 5 11 13 10 8 8 6 2 2 4 5 5 5 4 6 9 11 13 15 16 18 18 19 19 17 16 15 14 14 13 10 10 11 15 13 2 2 3 2 4 8 11 14 17 18 20 22 24
4 5 6 9 7 5 5 6 6 6 4 5 6 8 10 12 13 16 13 8 9 7 5 9 7 3 7 8 8 10 12 10 9 9 9 8 6 4 3 1 2 8 13 10 7 7 6 3 2 4 5 4 2 3 6 9 11 13 15 16 19 18 16 16 15 15 14 13 14 14 11 10 10 12 12 6 1 4 5 6 9 11 14 17 19 20 23 25
7 6 6 7 6 4 5 5 4 5 4 4 7 9 10 12 14 15 11 6 6 8 9 11 11 6 4 6 8 13 15 14 13 13 14 13 11 9 7 5 5 5 9 9 7 6 6 5 3 3 3 3 0 3 3 9 10 11 13 16 18 16 15 15 14 16 16 13 12 11 10 10 11 11 11 9 6 6 7 7 9 11 14 17 18 20 23 25
Wind_Direction
360 353 355 354 354 353 347 349 355 357 354 351 350 348 346 342 341 340 339 337 334 336 332 330 329 328 328 322 323 329 327 320 314 302 291 280 266 257 257 253 247 243 239 238 234 231 232 233 232 222 214 211 216 215 204 199 197 200 218 230 229 230 227 223 214 209 202 159 156 177 197 228 185 167 183 185 198 177 168 169 161 191 205 224 195 172 207 216
1 356 354 352 351 351 348 349 351 353 353 352 349 346 345 342 341 338 338 335 335 335 331 330 325 326 328 324 332 338 333 327 315 300 284 275 266 256 251 249 245 241 237 234 229 224 220 221 219 211 208 209 211 207 202 197 198 209 220 228 229 230 228 225 216 204 197 184 191 205 214 238 214 170 185 213 206 189 198 180 172 180 174 192 187 191 211 207
358 356 352 349 348 348 349 349 348 348 348 348 345 342 341 341 338 334 334 333 334 333 330 330 326 326 325 325 336 345 342 328 313 289 262 264 257 246 243 245 244 237 235 231 226 221 217 217 208 203 207 214 211 201 204 198 199 216 221 230 229 227 233 222 211 207 204 205 218 220 208 229 230 182 194 226 220 214 233 213 192 201 181 179 181 188 200 203
354 352 349 346 346 348 349 346 345 344 342 343 342 339 337 336 334 334 334 331 330 329 328 328 327 326 321 325 336 353 347 321 295 204 239 249 232 230 233 240 243 237 231 229 226 218 215 213 203 202 209 218 213 204 209 200 197 215 220 234 229 225 234 216 209 217 212 211 229 229 202 224 226 193 207 220 218 228 241 231 233 250 196 182 185 188 196 203
352 351 348 346 346 348 345 342 341 340 339 339 338 336 334 332 329 329 330 328 328 326 326 325 328 326 320 324 335 355 345 310 165 169 269 239 216 220 230 242 247 243 231 225 226 217 212 211 203 204 211 219 210 205 214 205 203 220 224 234 233 231 234 216 216 223 216 214 229 231 218 229 214 195 215 219 231 248 237 217 246 276 215 198 209 203 203 206
351 350 348 344 343 342 339 338 338 336 336 335 334 332 332 330 324 323 323 324 325 323 324 324 327 326 322 325 335 351 332 293 0 310 301 245 224 219 242 260 255 256 236 220 222 212 207 204 200 202 208 217 212 208 214 207 207 223 225 227 233 236 232 222 224 221 215 216 221 228 229 228 218 217 220 222 238 249 167 212 250 267 226 209 217 215 213 212
348 348 347 343 339 337 335 335 334 333 332 330 330 329 328 327 322 320 319 321 322 320 321 321 325 326 323 330 337 331 276 283 305 292 287 265 239 227 263 284 277 272 237 217 215 207 203 201 201 203 205 213 213 211 212 207 206 221 229 221 226 229 225 229 231 218 214 220 223 225 223 220 228 233 214 221 236 219 203 231 246 253 218 203 205 216 223 220
343 343 344 343 339 336 333 332 331 330 328 328 328 327 325 323 320 318 316 318 319 319 319 320 323 323 324 334 336 310 275 277 295 294 282 258 247 248 268 290 291 284 243 221 214 208 205 204 205 203 207 214 212 211 209 207 207 218 231 228 223 221 222 229 230 221 217 223 225 218 216 222 233 238 220 225 225 202 216 234 237 233 204 200 204 218 225 219
341 339 338 339 338 335 332 331 329 327 327 328 327 325 323 320 318 316 314 315 316 317 318 319 320 321 325 331 318 301 284 284 295 309 294 260 252 255 264 281 284 283 264 232 218 215 210 209 208 204 218 220 212 211 202 201 210 216 224 230 226 214 217 224 224 223 220 217 214 210 219 227 227 231 236 228 211 193 218 231 226 211 198 201 206 218 226 221
339 336 332 331 331 329 329 327 326 326 326 326 325 324 322 320 318 315 311 311 313 314 315 316 318 322 325 319 303 287 285 299 304 306 302 283 264 258 262 268 269 269 268 244 223 218 214 215 212 209 231 228 212 209 199 201 217 218 219 223 225 216 213 219 221 220 219 213 209 214 224 226 217 221 233 213 198 210 221 221 213 201 200 204 207 216 224 222
341 339 333 331 329 327 326 323 321 321 321 321 322 322 321 320 317 313 309 307 308 310 311 312 316 319 310 294 275 265 287 298 299 297 294 289 280 271 261 257 259 255 254 250 230 219 216 220 215 208 224 225 208 209 207 209 217 217 212 215 219 218 213 216 221 218 216 210 206 217 229 226 216 219 232 209 194 210 213 209 205 202 204 204 210 214 218 219
344 343 340 339 337 334 332 330 327 322 320 318 319 320 320 320 316 310 305 304 304 305 306 308 312 312 301 281 258 264 297 298 291 293 289 280 278 276 265 257 252 245 243 252 238 220 215 221 219 208 206 208 203 207 211 205 208 207 200 209 210 209 216 215 218 216 213 210 201 208 230 227 214 216 228 209 185 193 197 201 203 205 206 203 209 211 213 212
343 339 340 341 339 337 334 335 333 327 324 320 321 322 319 319 314 305 301 301 301 301 302 303 304 301 292 274 264 286 307 296 288 289 283 275 274 278 271 259 247 237 237 248 245 222 215 220 224 216 212 212 202 188 185 191 199 205 198 214 213 209 223 213 213 213 212 214 193 191 231 231 217 216 213 188 173 179 187 199 203 205 206 204 207 209 211 208
338 335 337 337 336 335 332 331 329 326 324 322 325 325 321 318 308 300 298 297 295 295 295 295 297 292 272 267 282 302 302 293 294 284 269 274 279 288 271 258 249 232 229 242 244 223 214 216 225 223 219 221 207 172 172 185 193 201 198 214 218 218 223 207 207 207 207 209 187 192 237 238 234 222 196 174 171 179 191 202 206 207 206 206 207 208 209 207
335 333 333 332 332 332 330 328 325 323 322 322 327 326 320 313 304 300 298 296 294 291 289 287 287 277 271 276 290 303 300 298 310 272 254 270 289 298 268 264 259 229 219 228 234 222 210 207 215 218 210 213 210 187 187 185 187 196 198 208 214 221 224 206 202 199 199 196 186 200 236 239 247 219 176 172 178 187 204 209 210 213 210 208 209 208 207 204
333 332 330 328 328 328 328 326 323 322 320 322 326 325 319 312 306 304 301 300 298 290 280 268 258 257 275 284 283 292 301 278 258 271 259 259 294 300 285 271 252 222 211 213 222 216 204 203 211 215 206 202 205 194 187 186 192 199 206 212 210 214 225 212 199 196 197 189 187 206 229 239 239 184 166 178 183 191 208 212 211 214 211 209 208 206 204 200
333 331 327 324 323 324 326 325 323 321 320 322 325 325 320 314 309 306 306 310 310 291 247 240 250 250 258 265 264 273 280 249 253 274 266 272 287 292 291 268 238 212 201 201 208 204 198 199 206 212 210 204 202 197 194 196 196 196 206 215 213 213 220 213 195 194 196 191 193 207 225 242 228 172 172 179 181 191 204 208 210 212 211 208 207 205 203 201
334 330 326 323 320 321 322 323 323 321 321 323 324 325 322 318 318 312 311 327 338 244 214 224 221 245 253 249 254 262 262 265 272 275 273 276 276 284 279 251 230 203 194 193 197 197 192 196 201 204 206 204 199 200 203 201 196 195 201 209 216 215 216 213 196 186 192 193 199 206 220 233 223 180 177 177 181 193 200 206 209 211 212 208 205 206 205 203
333 330 327 323 318 318 319 319 321 321 324 324 325 330 330 331 330 304 251 343 300 233 262 230 200 237 287 279 262 272 286 283 280 280 275 261 253 275 265 238 223 205 198 192 192 193 188 191 202 204 201 201 199 202 207 205 204 205 203 206 215 215 217 216 199 181 188 191 202 209 217 223 218 195 182 179 185 195 202 207 209 211 212 209 207 208 207 205
328 326 325 321 317 316 316 315 317 319 323 326 328 335 336 332 326 267 237 292 272 263 273 266 236 250 277 283 275 282 289 285 278 273 264 246 233 245 244 221 215 210 205 202 187 187 191 194 203 205 203 202 201 205 210 214 222 221 212 209 213 215 214 209 195 178 185 192 204 212 220 222 218 209 190 180 186 197 204 205 207 211 211 210 209 208 208 205
325 322 319 315 314 314 311 309 312 317 322 325 330 336 332 325 320 306 313 297 274 267 265 264 257 257 266 272 276 283 287 285 272 259 247 230 211 217 222 204 206 209 207 208 189 183 197 205 209 208 208 206 203 207 213 217 228 224 213 206 206 209 204 193 184 174 183 198 211 215 224 226 221 217 198 183 186 196 202 204 208 211 211 211 210 209 209 200
327 324 317 313 311 309 308 306 307 313 321 327 331 329 319 311 308 308 311 293 281 276 266 266 263 261 266 270 274 274 272 274 269 258 238 218 206 205 205 198 207 210 202 205 196 185 201 216 214 209 209 209 204 205 208 210 214 210 202 198 200 201 194 187 185 181 186 203 218 218 224 227 223 218 201 191 193 198 201 206 210 211 212 213 213 211 204 196
330 328 324 322 317 306 303 305 306 311 316 319 315 309 301 300 305 306 302 292 290 280 266 266 262 263 270 273 273 256 248 255 263 260 223 202 203 203 204 204 211 211 202 203 202 195 201 219 217 208 207 209 205 202 201 202 208 205 202 203 206 200 195 193 189 187 189 202 226 227 226 230 221 212 204 200 201 201 201 207 212 215 217 217 216 212 202 198
332 329 325 326 323 312 303 301 304 305 300 305 304 292 296 314 318 315 306 291 284 277 260 255 257 263 269 283 278 231 239 250 259 262 209 193 197 197 207 215 211 212 209 203 204 207 208 219 215 204 203 206 203 199 198 200 205 208 213 215 212 199 198 199 181 177 185 198 218 223 221 230 215 203 205 202 202 204 200 203 211 215 219 222 219 215 208 205
332 330 327 325 324 318 313 308 306 295 290 304 299 287 315 326 326 321 310 291 275 246 218 218 225 234 239 280 278 240 260 261 252 251 213 199 197 189 202 215 214 214 210 203 204 213 211 200 199 197 194 198 198 196 200 204 206 208 213 223 223 199 197 197 174 169 185 201 201 204 221 230 210 208 210 198 198 205 200 203 210 213 216 218 216 214 212 211
333 331 327 324 319 318 322 323 309 286 298 306 285 295 325 327 326 323 305 286 276 181 177 202 210 197 197 261 263 253 266 260 248 240 217 210 205 197 201 203 212 219 210 202 204 219 206 174 184 194 190 195 201 202 202 201 209 210 196 207 219 192 189 189 175 177 199 209 197 199 222 238 212 210 209 197 197 201 200 206 209 209 209 210 212 211 210 210
334 329 323 320 318 317 317 307 285 286 298 297 284 303 324 323 323 321 293 267 260 131 162 191 201 213 227 251 221 232 271 317 294 236 210 209 204 205 215 201 203 219 211 199 202 217 203 183 187 199 195 197 204 205 197 195 208 208 175 186 199 196 194 188 182 193 209 213 197 194 213 239 230 211 199 195 198 200 202 206 206 205 205 208 213 211 209 208
335 329 323 320 317 311 299 286 282 282 275 275 290 296 306 323 322 292 281 281 281 95 190 167 210 247 240 236 209 223 281 307 292 216 194 204 200 199 218 212 204 208 206 204 200 199 203 200 194 196 198 197 201 201 189 190 204 192 157 174 189 195 200 194 193 206 208 210 205 197 205 229 238 214 191 191 198 205 205 202 200 202 205 210 213 211 209 207
337 331 326 322 320 317 292 277 275 267 256 269 286 285 297 320 298 259 258 283 314 203 273 178 211 242 235 242 223 228 263 274 261 177 175 195 201 204 224 219 211 206 204 210 203 180 195 210 203 195 200 197 197 199 186 188 198 171 155 165 169 178 193 196 202 206 204 213 218 206 200 213 236 215 191 193 201 207 205 197 196 200 206 211 212 209 207 206
339 335 330 327 329 328 297 279 271 255 248 262 268 276 291 247 247 265 253 266 308 338 11 181 202 329 291 273 250 229 243 249 244 216 181 187 199 210 225 217 213 207 201 209 210 193 184 204 202 200 208 198 190 191 181 186 193 169 161 163 155 164 180 189 206 207 202 219 225 214 201 207 231 217 198 203 206 205 198 191 194 199 206 210 210 207 205 203
340 338 336 339 340 341 357 321 282 262 241 248 246 233 246 234 242 266 268 257 273 284 279 186 0 345 301 283 278 242 237 240 225 205 189 184 192 199 206 203 204 202 197 202 211 212 196 195 194 197 208 197 174 176 173 183 190 180 174 171 158 164 171 177 196 203 209 223 225 217 205 207 226 223 206 205 203 199 194 192 194 197 204 207 206 205 202 200
341 340 345 356 359 359 24 1 277 290 212 207 195 205 235 251 243 251 287 286 250 314 359 28 319 294 276 282 281 259 252 238 210 205 196 186 186 193 200 196 184 189 193 190 196 201 198 194 186 184 197 197 179 171 171 181 187 186 189 183 171 169 170 184 189 193 213 224 219 212 207 210 226 229 219 206 193 191 192 197 199 199 203 204 203 202 198 198
342 345 356 8 7 357 312 266 267 115 156 167 181 223 245 269 270 279 318 315 312 349 343 263 281 283 277 281 274 246 238 223 204 205 195 189 192 192 198 200 192 196 195 184 187 190 189 188 185 182 183 195 197 178 170 180 182 187 193 188 185 177 172 188 189 192 210 199 147 203 208 219 232 228 225 213 189 188 192 198 205 206 205 203 200 198 195 196
346 357 17 18 4 351 320 303 220 190 201 168 177 223 242 262 281 313 325 314 315 320 312 304 302 298 283 268 267 240 222 210 198 200 192 190 197 191 194 197 197 205 201 184 188 189 189 185 186 191 179 183 200 196 177 178 180 189 196 194 198 191 178 190 191 194 206 186 160 186 203 223 229 220 225 211 190 189 193 198 206 209 207 203 198 194 194 196
349 12 28 20 360 350 342 311 237 218 202 174 192 229 241 266 291 324 319 305 312 311 308 309 303 295 282 245 246 241 229 213 197 197 193 191 194 190 191 187 191 207 202 184 184 187 198 191 174 190 188 178 193 202 183 178 181 189 196 199 206 201 182 182 183 195 213 190 173 185 205 224 208 77 119 203 195 190 190 194 198 198 197 195 192 192 193 196
352 28 26 9 351 345 343 313 225 220 206 203 237 244 256 286 298 322 330 304 307 306 307 310 305 298 306 257 175 189 182 201 202 194 189 198 198 189 191 182 184 206 209 183 175 184 198 179 160 181 194 184 192 197 186 187 182 180 196 202 203 206 200 180 125 60 208 208 190 193 212 220 209 161 165 188 199 191 184 188 192 192 187 184 187 190 193 196
351 45 27 1 343 337 329 295 202 206 208 212 246 268 292 300 287 279 281 280 291 299 306 314 345 353 318 329 115 145 160 184 203 193 184 197 197 188 191 179 177 202 225 209 193 194 195 163 159 181 186 183 192 191 190 204 202 182 193 193 188 209 221 202 184 162 191 218 205 197 214 219 221 206 169 181 196 191 187 190 192 194 191 188 191 193 195 194
351 95 28 0 343 332 314 269 187 197 211 211 245 269 282 291 293 280 261 273 290 292 288 295 347 69 309 319 43 131 176 187 194 189 180 185 183 184 188 177 178 197 216 234 217 198 200 177 163 184 183 175 189 190 187 210 222 216 201 185 178 198 202 193 199 191 196 216 218 210 219 224 222 204 168 183 195 189 189 193 195 196 195 198 200 197 195 190
355 214 12 353 345 347 4 179 175 196 219 228 256 273 280 292 302 294 274 278 287 277 265 275 257 186 266 319 354 222 200 200 195 183 173 180 171 184 193 182 181 194 200 219 213 181 201 203 159 179 182 170 183 197 187 193 211 236 222 197 193 203 198 195 206 204 199 210 219 218 221 224 225 209 183 187 191 189 192 196 201 203 200 203 205 199 191 185
346 235 354 347 347 6 89 159 177 199 227 254 272 281 291 299 304 299 287 279 269 256 266 282 271 258 284 310 318 278 231 213 204 186 172 184 165 175 195 188 181 189 193 215 220 174 199 217 165 170 179 174 182 200 195 183 184 204 210 196 193 201 203 202 209 215 214 212 212 217 226 227 211 202 203 198 188 189 195 198 204 206 205 207 205 195 187 185
345 279 2 342 345 12 124 166 195 225 241 270 282 283 291 298 300 302 300 280 243 240 259 280 279 290 301 297 301 292 261 212 197 189 174 187 189 185 192 192 188 181 179 202 213 185 197 214 178 162 176 187 187 193 202 196 187 193 200 195 193 195 197 200 204 208 217 226 220 217 234 236 165 176 204 206 203 203 202 204 209 211 211 208 199 191 187 186
342 336 356 342 346 16 172 189 228 238 233 276 294 294 296 297 292 300 312 298 245 235 241 257 259 269 287 302 327 303 258 207 184 193 187 188 208 208 176 186 192 181 176 195 187 174 222 226 179 162 178 193 180 184 205 207 196 198 207 205 202 199 201 206 200 193 203 225 236 229 234 211 123 162 202 202 205 203 193 206 213 211 209 199 187 186 186 181
338 331 330 344 358 183 219 260 276 261 270 301 309 305 299 294 285 299 317 315 279 241 229 245 252 268 327 16 320 292 232 207 196 195 187 179 192 178 162 181 193 188 186 197 172 163 223 224 178 158 172 184 167 176 206 214 204 203 208 209 209 206 206 215 217 201 203 213 212 214 227 194 121 148 225 210 192 165 116 158 188 176 175 177 177 177 176 174
323 285 283 340 358 193 235 304 315 308 313 317 320 320 311 294 279 291 312 323 317 300 280 284 260 271 356 355 291 281 258 234 216 199 200 187 168 139 157 184 193 195 193 188 167 172 196 209 182 162 166 175 169 177 197 207 208 207 206 207 212 210 205 213 226 222 215 215 212 215 231 214 135 128 151 143 143 147 141 174 185 181 173 174 177 176 173 173
317 259 207 323 323 229 244 295 308 300 312 317 318 324 326 317 300 293 298 305 302 291 290 296 290 290 295 279 273 277 269 249 234 227 223 207 164 127 171 191 196 203 199 182 174 183 200 217 193 177 172 176 184 186 186 196 202 206 206 205 209 212 206 205 213 216 212 213 215 219 229 217 164 157 167 169 164 157 149 161 178 190 187 182 179 177 176 176
324 312 233 314 259 230 247 286 300 283 304 317 317 325 330 329 327 316 295 287 261 244 274 285 296 299 271 258 290 287 258 232 230 240 225 204 178 147 182 194 200 209 200 182 194 208 228 244 231 230 217 194 192 183 169 182 193 199 205 204 204 209 210 206 208 215 215 215 219 221 225 227 212 197 192 189 189 184 162 160 172 182 187 185 180 177 176 177
311 338 0 349 296 237 242 281 306 292 301 313 314 314 316 320 330 335 308 291 190 180 248 279 281 290 285 309 329 304 267 231 224 241 273 243 189 160 183 194 205 211 203 193 206 214 243 237 237 266 273 255 210 171 165 184 193 197 201 204 204 206 210 212 215 219 220 222 227 219 218 230 237 236 228 205 168 164 155 165 182 183 183 181 178 178 177 179
337 356 359 341 307 283 300 314 315 308 304 305 284 276 305 320 331 339 326 306 288 198 201 250 238 249 266 279 315 306 289 246 217 248 301 262 209 184 178 183 202 206 203 208 206 209 243 230 221 259 270 275 258 200 189 199 202 201 200 201 202 203 207 214 219 225 226 229 234 218 212 221 236 250 253 248 77 58 98 164 189 185 184 181 177 180 182 183
5 350 331 333 305 288 294 296 300 305 306 306 285 277 313 324 327 332 333 313 306 261 191 225 239 233 257 261 255 274 279 269 162 163 273 277 256 206 176 169 200 201 201 209 201 205 234 217 190 253 261 260 244 227 223 221 217 215 210 205 204 204 207 210 214 221 225 232 243 241 229 223 230 249 258 281 60 7 2 158 191 188 188 186 180 183 187 188
12 348 327 322 303 280 281 289 295 305 320 332 335 335 332 330 331 334 330 307 302 293 186 244 256 200 224 255 252 254 270 304 309 259 265 297 293 215 180 165 192 193 196 208 198 198 220 194 140 244 258 239 228 250 254 233 222 221 218 214 211 208 209 210 211 216 220 225 234 241 248 240 235 248 257 269 59 303 278 205 201 196 192 189 184 186 190 191
5 342 320 314 308 287 293 306 297 299 332 351 341 340 335 331 334 333 324 300 286 281 279 301 306 183 203 233 234 242 256 267 269 267 277 289 288 264 238 245 213 189 192 203 198 189 211 236 196 229 249 219 199 308 263 220 212 219 220 217 212 207 209 211 212 217 220 222 226 231 241 246 243 251 256 254 254 262 252 223 207 200 195 192 190 189 191 192
348 344 337 319 301 280 295 312 296 293 329 347 328 326 322 318 327 331 326 313 288 281 291 308 318 315 264 243 232 239 251 263 269 270 274 273 271 266 259 266 278 228 193 195 200 192 207 232 218 217 247 224 289 329 222 187 196 218 219 215 212 208 208 210 213 218 221 224 226 227 234 245 250 254 254 255 253 252 249 231 209 201 196 195 195 194 193 193
Height
1532 1531 1531 1530 1529 1528 1527 1526 1525 1523 1522 1521 1520 1519 1518 1517 1516 1515 1514 1513 1512 1511 1510 1509 1508 1507 1506 1505 1504 1503 1503 1502 1502 1503 1503 1503 1503 1504 1504 1504 1504 1505 1507 1508 1510 1512 1514 1516 1517 1518 1521 1522 1522 1521 1521 1522 1522 1522 1522 1522 1520 1517 1515 1512 1513 1516 1517 1520 1523 1524 1525 1525 1527 1530 1531 1531 1530 1530 1531 1532 1532 1533 1533 1533 1533 1533 1532 1532
1532 1531 1530 1529 1528 1527 1527 1525 1524 1523 1522 1521 1520 1519 1518 1517 1516 1515 1514 1513 1511 1510 1509 1508 1507 1506 1505 1504 1503 1503 1501 1501 1500 1501 1501 1500 1500 1501 1501 1501 1502 1503 1505 1507 1509 1511 1513 1515 1516 1517 1519 1519 1518 1519 1518 1519 1519 1517 1516 1518 1515 1511 1509 1507 1510 1512 1515 1520 1521 1522 1524 1524 1525 1527 1529 1529 1528 1529 1529 1530 1532 1532 1532 1532 1532 1532 1531 1532
1531 1530 1529 1528 1528 1527 1526 1525 1524 1523 1521 1520 1519 1518 1517 1516 1515 1514 1513 1512 1511 1510 1509 1508 1506 1505 1504 1503 1503 1502 1500 1500 1499 1499 1498 1497 1498 1498 1498 1499 1500 1502 1503 1505 1507 1509 1511 1513 1514 1515 1517 1516 1514 1516 1515 1515 1515 1512 1512 1512 1508 1506 1505 1505 1509 1511 1515 1518 1519 1521 1523 1523 1524 1526 1528 1527 1527 1528 1526 1526 1529 1530 1531 1531 1531 1531 1531 1531
1531 1530 1529 1528 1527 1526 1525 1524 1523 1522 1521 1520 1519 1518 1517 1516 1515 1513 1512 1511 1510 1509 1508 1507 1505 1505 1503 1502 1502 1501 1501 1499 1497 1497 1495 1495 1496 1496 1497 1497 1498 1500 1501 1503 1505 1507 1509 1511 1512 1514 1514 1512 1511 1513 1511 1510 1511 1509 1507 1505 1503 1504 1504 1504 1509 1511 1514 1517 1518 1519 1521 1522 1523 1525 1526 1525 1527 1526 1523 1524 1526 1527 1529 1529 1529 1530 1530 1530
1530 1529 1528 1527 1526 1525 1525 1523 1522 1522 1520 1519 1518 1517 1516 1515 1514 1513 1512 1510 1509 1508 1507 1506 1505 1504 1502 1502 1502 1502 1502 1497 1494 1496 1495 1494 1495 1495 1496 1496 1497 1498 1500 1502 1503 1505 1507 1509 1510 1512 1511 1508 1507 1508 1506 1506 1508 1505 1502 1501 1501 1502 1502 1504 1508 1511 1513 1516 1517 1517 1519 1520 1521 1523 1523 1523 1525 1523 1520 1523 1526 1526 1527 1528 1528 1528 1529 1529
1530 1529 1528 1526 1525 1525 1524 1523 1522 1521 1519 1519 1518 1516 1515 1514 1513 1512 1511 1510 1508 1507 1506 1505 1504 1503 1502 1502 1501 1502 1503 1495 1494 1497 1495 1495 1495 1495 1495 1495 1496 1497 1498 1500 1501 1503 1505 1507 1508 1507 1506 1504 1502 1502 1502 1504 1506 1503 1500 1501 1502 1501 1501 1504 1507 1509 1512 1514 1515 1516 1517 1518 1519 1520 1521 1521 1521 1520 1521 1524 1525 1526 1527 1527 1527 1527 1527 1527
1529 1528 1527 1526 1525 1524 1523 1522 1521 1520 1519 1518 1517 1516 1514 1513 1512 1511 1510 1509 1508 1507 1506 1505 1503 1502 1501 1501 1501 1502 1502 1498 1496 1496 1495 1496 1495 1494 1495 1495 1495 1496 1497 1499 1500 1502 1503 1504 1504 1502 1502 1500 1498 1498 1500 1501 1503 1502 1498 1498 1500 1501 1502 1504 1505 1508 1510 1511 1513 1515 1516 1517 1517 1517 1518 1519 1519 1521 1522 1523 1524 1525 1526 1526 1525 1525 1525 1526
1529 1528 1526 1525 1524 1523 1522 1521 1520 1519 1518 1517 1516 1515 1513 1512 1511 1509 1508 1507 1507 1506 1505 1504 1503 1502 1501 1501 1502 1502 1500 1498 1496 1494 1494 1495 1495 1494 1495 1494 1495 1495 1496 1498 1499 1500 1501 1501 1500 1499 1498 1495 1495 1496 1497 1499 1500 1499 1497 1496 1498 1500 1501 1503 1505 1507 1508 1510 1512 1514 1514 1514 1515 1515 1515 1517 1518 1520 1521 1522 1523 1524 1524 1524 1524 1524 1524 1525
1528 1527 1526 1525 1523 1522 1521 1520 1519 1518 1516 1516 1515 1513 1512 1511 1510 1509 1508 1506 1506 1505 1504 1503 1502 1502 1501 1502 1503 1501 1497 1495 1494 1493 1493 1493 1493 1494 1494 1494 1494 1494 1496 1496 1497 1499 1499 1498 1497 1497 1495 1493 1493 1493 1495 1497 1496 1495 1496 1496 1497 1499 1500 1502 1504 1505 1507 1509 1511 1512 1512 1512 1514 1515 1514 1514 1517 1519 1520 1521 1522 1522 1523 1522 1523 1523 1523 1524
1527 1526 1525 1524 1523 1521 1520 1519 1518 1516 1515 1514 1513 1512 1511 1510 1509 1508 1506 1505 1504 1504 1503 1502 1501 1501 1502 1503 1503 1499 1494 1493 1493 1492 1492 1491 1492 1492 1493 1493 1493 1493 1495 1495 1496 1496 1497 1497 1497 1498 1497 1493 1492 1492 1492 1493 1492 1492 1495 1495 1497 1498 1499 1501 1502 1503 1505 1507 1509 1510 1510 1511 1513 1514 1512 1512 1516 1518 1519 1520 1520 1521 1521 1521 1522 1522 1522 1523
1527 1525 1524 1523 1522 1520 1519 1518 1516 1515 1514 1513 1512 1511 1510 1508 1507 1506 1505 1504 1503 1503 1502 1501 1500 1500 1501 1502 1502 1497 1492 1492 1491 1491 1491 1490 1490 1491 1492 1491 1491 1492 1493 1494 1494 1494 1496 1496 1497 1498 1497 1492 1491 1491 1490 1490 1491 1492 1494 1495 1497 1498 1498 1500 1500 1502 1504 1504 1507 1508 1508 1509 1510 1510 1508 1510 1513 1515 1517 1518 1518 1519 1520 1520 1520 1521 1521 1523
1526 1525 1523 1522 1521 1519 1518 1516 1515 1514 1513 1511 1510 1509 1508 1507 1506 1504 1503 1503 1502 1501 1500 1500 1500 1500 1500 1500 1497 1493 1491 1491 1489 1489 1489 1488 1488 1489 1490 1490 1490 1491 1492 1493 1493 1493 1495 1496 1496 1495 1493 1491 1490 1490 1488 1489 1492 1493 1494 1495 1497 1498 1498 1497 1498 1500 1501 1502 1504 1508 1510 1507 1506 1505 1505 1508 1511 1513 1515 1516 1516 1517 1518 1519 1519 1519 1520 1522
1526 1524 1522 1521 1519 1518 1516 1515 1514 1512 1511 1510 1508 1508 1506 1505 1504 1503 1501 1501 1500 1500 1499 1499 1498 1499 1500 1495 1490 1489 1489 1488 1486 1486 1487 1486 1487 1487 1488 1488 1489 1489 1490 1491 1492 1493 1494 1494 1495 1493 1492 1490 1487 1487 1486 1488 1492 1492 1493 1494 1495 1498 1495 1492 1495 1497 1499 1500 1502 1508 1511 1503 1499 1500 1503 1506 1508 1511 1513 1513 1514 1515 1516 1517 1518 1518 1519 1521
1525 1523 1522 1520 1518 1517 1515 1514 1512 1511 1509 1508 1507 1506 1504 1503 1502 1500 1500 1499 1498 1498 1497 1497 1497 1499 1498 1490 1486 1487 1487 1485 1484 1484 1485 1485 1486 1487 1487 1487 1488 1488 1489 1489 1491 1492 1492 1493 1494 1493 1492 1490 1486 1486 1486 1487 1490 1491 1493 1492 1491 1493 1489 1486 1491 1494 1496 1498 1499 1506 1505 1496 1492 1492 1497 1503 1505 1508 1510 1510 1512 1513 1514 1515 1516 1517 1518 1519
1524 1522 1521 1519 1517 1516 1514 1513 1511 1509 1508 1506 1505 1504 1502 1501 1499 1498 1498 1496 1496 1496 1495 1496 1496 1498 1495 1488 1485 1485 1484 1484 1483 1483 1484 1485 1485 1486 1486 1486 1487 1487 1487 1488 1489 1490 1491 1492 1493 1491 1490 1489 1487 1486 1485 1486 1486 1487 1491 1491 1486 1485 1482 1480 1484 1487 1491 1494 1498 1502 1499 1493 1490 1487 1493 1500 1502 1505 1507 1508 1510 1511 1512 1513 1514 1515 1517 1518
1523 1521 1520 1518 1516 1515 1513 1512 1510 1508 1506 1504 1503 1502 1500 1498 1496 1496 1495 1494 1494 1493 1494 1496 1496 1498 1494 1486 1483 1483 1483 1483 1483 1483 1483 1483 1484 1485 1485 1485 1485 1486 1486 1487 1488 1489 1491 1491 1492 1489 1487 1487 1485 1481 1482 1485 1485 1482 1483 1484 1480 1479 1478 1476 1477 1480 1485 1490 1495 1495 1492 1490 1488 1488 1495 1499 1500 1503 1504 1505 1507 1508 1509 1510 1512 1513 1515 1517
1521 1520 1518 1517 1515 1513 1512 1510 1508 1507 1505 1503 1501 1499 1498 1496 1494 1494 1492 1492 1492 1491 1494 1495 1495 1497 1490 1483 1482 1482 1483 1483 1482 1483 1482 1482 1483 1483 1483 1484 1484 1485 1486 1486 1487 1488 1489 1490 1489 1486 1483 1482 1479 1477 1479 1482 1481 1477 1474 1474 1471 1471 1474 1473 1473 1477 1481 1486 1490 1490 1488 1488 1486 1490 1496 1497 1499 1501 1501 1503 1504 1505 1507 1508 1510 1511 1513 1515
1520 1518 1517 1515 1514 1512 1511 1509 1507 1505 1503 1501 1500 1498 1496 1494 1492 1492 1492 1492 1491 1492 1493 1492 1495 1493 1482 1478 1481 1481 1481 1481 1481 1481 1481 1481 1481 1481 1482 1483 1483 1484 1484 1485 1485 1485 1486 1486 1484 1482 1480 1478 1474 1470 1470 1467 1465 1466 1467 1468 1466 1465 1468 1469 1471 1475 1477 1482 1487 1487 1488 1486 1485 1490 1494 1495 1497 1498 1499 1500 1501 1503 1505 1506 1508 1509 1511 1513
1519 1517 1515 1514 1512 1511 1509 1507 1506 1504 1502 1500 1498 1496 1494 1493 1492 1492 1492 1493 1492 1491 1488 1487 1490 1485 1475 1477 1481 1479 1479 1479 1478 1478 1479 1480 1479 1480 1481 1481 1482 1482 1481 1480 1480 1481 1481 1481 1481 1478 1473 1469 1464 1458 1455 1452 1452 1456 1458 1463 1465 1464 1465 1465 1467 1470 1473 1479 1483 1483 1484 1484 1485 1488 1490 1492 1495 1496 1497 1498 1499 1501 1502 1503 1505 1507 1509 1511
1517 1515 1514 1512 1510 1509 1507 1506 1504 1502 1501 1499 1497 1496 1494 1494 1492 1489 1491 1492 1490 1488 1485 1484 1484 1480 1475 1478 1479 1478 1478 1476 1475 1476 1477 1478 1478 1478 1479 1480 1481 1480 1477 1474 1474 1476 1477 1476 1474 1468 1461 1457 1455 1454 1452 1451 1452 1454 1455 1459 1462 1462 1463 1462 1464 1468 1470 1476 1479 1478 1479 1481 1482 1483 1485 1489 1492 1494 1495 1496 1497 1498 1499 1500 1502 1504 1506 1509
1515 1513 1512 1510 1509 1507 1505 1504 1502 1501 1500 1498 1498 1497 1496 1496 1493 1490 1491 1490 1487 1485 1482 1481 1481 1478 1476 1476 1477 1477 1476 1474 1473 1474 1475 1476 1476 1476 1476 1477 1477 1474 1471 1469 1469 1473 1474 1470 1464 1458 1455 1454 1456 1458 1456 1455 1456 1455 1453 1456 1459 1459 1461 1462 1465 1468 1468 1472 1474 1474 1477 1478 1477 1479 1481 1484 1488 1490 1491 1492 1494 1494 1496 1498 1499 1502 1504 1507
1513 1511 1509 1508 1506 1505 1504 1502 1501 1500 1499 1498 1498 1498 1497 1496 1495 1493 1492 1488 1484 1482 1479 1478 1478 1476 1474 1475 1474 1475 1475 1472 1470 1470 1471 1473 1473 1473 1472 1472 1472 1468 1466 1466 1465 1468 1470 1463 1455 1454 1455 1456 1458 1459 1458 1458 1459 1457 1453 1456 1460 1458 1460 1464 1465 1466 1467 1469 1471 1471 1473 1474 1473 1474 1477 1480 1483 1485 1488 1489 1491 1493 1494 1496 1497 1500 1503 1505
1512 1509 1507 1506 1504 1503 1501 1500 1499 1499 1498 1498 1498 1497 1497 1495 1494 1493 1492 1487 1480 1477 1475 1474 1475 1473 1472 1473 1472 1473 1472 1469 1467 1466 1467 1469 1469 1469 1468 1468 1467 1464 1463 1462 1459 1462 1464 1456 1450 1454 1457 1457 1457 1457 1457 1460 1460 1457 1454 1456 1458 1455 1459 1466 1466 1466 1466 1468 1469 1469 1471 1472 1471 1472 1475 1477 1480 1482 1486 1488 1490 1492 1492 1493 1495 1498 1500 1503
1510 1508 1506 1504 1502 1501 1499 1498 1498 1498 1497 1497 1497 1496 1495 1494 1493 1492 1491 1485 1476 1472 1472 1472 1471 1471 1471 1471 1471 1471 1469 1467 1465 1463 1464 1464 1465 1466 1465 1464 1463 1461 1458 1455 1454 1456 1455 1450 1450 1453 1455 1455 1456 1455 1457 1461 1461 1457 1453 1453 1453 1453 1456 1460 1462 1465 1467 1469 1470 1471 1478 1475 1469 1473 1475 1475 1479 1480 1483 1486 1487 1489 1490 1492 1494 1496 1498 1500
1508 1506 1504 1502 1501 1499 1497 1496 1496 1496 1496 1496 1496 1495 1494 1493 1492 1492 1490 1484 1472 1467 1469 1469 1468 1468 1469 1469 1468 1469 1468 1465 1463 1461 1462 1462 1461 1462 1462 1462 1461 1458 1454 1452 1454 1454 1449 1449 1450 1450 1452 1455 1456 1456 1457 1459 1459 1457 1455 1453 1450 1451 1455 1456 1459 1466 1472 1475 1470 1473 1485 1478 1465 1470 1473 1471 1476 1477 1479 1482 1483 1486 1488 1490 1491 1493 1495 1498
1506 1505 1502 1501 1499 1497 1496 1495 1495 1495 1495 1495 1495 1494 1494 1493 1492 1492 1490 1482 1470 1463 1464 1467 1466 1465 1467 1467 1467 1468 1466 1462 1459 1459 1460 1460 1460 1459 1459 1459 1458 1454 1450 1450 1454 1450 1445 1448 1451 1451 1454 1457 1457 1456 1455 1456 1458 1458 1456 1454 1452 1452 1454 1457 1459 1465 1471 1471 1464 1467 1480 1475 1461 1462 1465 1466 1471 1474 1476 1477 1479 1482 1484 1486 1488 1490 1492 1495
1505 1503 1501 1499 1497 1496 1496 1495 1495 1494 1494 1495 1494 1493 1494 1492 1492 1492 1488 1479 1467 1461 1463 1464 1464 1464 1464 1465 1465 1466 1462 1457 1456 1456 1457 1458 1458 1458 1457 1454 1454 1452 1447 1449 1454 1448 1441 1447 1452 1452 1454 1455 1454 1452 1451 1453 1458 1455 1450 1454 1456 1455 1456 1457 1459 1463 1461 1459 1459 1461 1469 1472 1462 1455 1456 1461 1467 1470 1472 1473 1475 1478 1481 1483 1484 1486 1488 1491
1503 1501 1498 1496 1495 1495 1494 1493 1493 1493 1494 1494 1492 1493 1492 1491 1492 1491 1487 1479 1466 1460 1461 1462 1463 1464 1463 1463 1463 1462 1458 1456 1455 1453 1454 1457 1456 1457 1456 1450 1450 1450 1446 1448 1451 1445 1441 1446 1449 1450 1450 1450 1448 1447 1448 1453 1456 1451 1449 1453 1455 1455 1456 1454 1457 1459 1454 1457 1467 1463 1463 1473 1465 1449 1450 1457 1462 1465 1465 1468 1472 1475 1478 1479 1480 1483 1485 1488
1501 1499 1496 1494 1493 1493 1492 1492 1492 1492 1493 1492 1492 1492 1490 1491 1492 1487 1485 1480 1464 1457 1459 1460 1463 1463 1462 1461 1459 1458 1456 1455 1454 1452 1453 1456 1455 1455 1454 1450 1449 1448 1446 1446 1444 1442 1444 1447 1448 1447 1446 1445 1444 1445 1447 1452 1452 1449 1450 1452 1452 1454 1454 1454 1456 1456 1455 1464 1470 1460 1458 1470 1464 1448 1450 1457 1456 1456 1458 1462 1468 1471 1473 1475 1476 1480 1483 1486
1500 1497 1495 1493 1491 1491 1491 1491 1491 1491 1491 1491 1491 1491 1490 1492 1489 1483 1483 1475 1461 1456 1458 1459 1461 1462 1461 1459 1453 1453 1453 1452 1452 1452 1453 1454 1454 1455 1453 1450 1449 1447 1446 1446 1443 1442 1444 1446 1446 1446 1444 1441 1442 1444 1446 1451 1450 1449 1451 1452 1454 1456 1455 1456 1455 1452 1462 1472 1464 1451 1448 1461 1464 1449 1444 1450 1448 1446 1453 1458 1462 1465 1468 1471 1473 1477 1479 1482
1498 1496 1494 1492 1491 1491 1490 1491 1491 1490 1490 1491 1490 1491 1492 1489 1483 1480 1475 1465 1458 1457 1456 1457 1461 1462 1463 1459 1452 1449 1448 1448 1448 1449 1450 1450 1452 1453 1451 1450 1449 1448 1448 1448 1446 1445 1444 1444 1443 1444 1444 1441 1442 1444 1447 1450 1449 1450 1451 1450 1456 1461 1460 1463 1461 1460 1473 1472 1454 1443 1443 1455 1463 1447 1434 1439 1441 1442 1448 1452 1455 1459 1462 1466 1470 1472 1475 1479
1497 1495 1493 1492 1491 1490 1491 1491 1490 1490 1490 1490 1490 1491 1490 1485 1479 1474 1463 1456 1460 1461 1458 1462 1464 1462 1462 1460 1453 1447 1445 1445 1445 1445 1445 1445 1447 1448 1447 1445 1444 1446 1447 1446 1447 1447 1444 1440 1440 1443 1444 1443 1443 1445 1449 1449 1449 1451 1450 1449 1458 1465 1469 1474 1471 1469 1471 1460 1445 1439 1441 1450 1452 1438 1429 1432 1436 1439 1443 1446 1449 1453 1457 1461 1465 1469 1472 1475
1496 1494 1493 1492 1491 1491 1491 1491 1490 1491 1490 1490 1491 1490 1488 1485 1476 1464 1457 1458 1462 1462 1461 1465 1464 1459 1459 1458 1451 1444 1442 1442 1442 1441 1441 1442 1443 1443 1442 1440 1438 1438 1438 1439 1444 1447 1444 1439 1437 1441 1443 1443 1441 1441 1446 1446 1445 1448 1445 1445 1452 1459 1473 1479 1469 1467 1465 1455 1447 1441 1442 1450 1445 1432 1428 1430 1434 1437 1438 1442 1446 1449 1453 1457 1461 1465 1469 1472
1495 1494 1493 1492 1492 1491 1491 1490 1490 1491 1490 1490 1491 1489 1490 1487 1472 1460 1461 1464 1462 1461 1462 1462 1460 1457 1454 1453 1447 1440 1439 1440 1439 1439 1439 1440 1442 1441 1439 1439 1436 1433 1432 1435 1440 1443 1446 1442 1438 1439 1439 1440 1438 1435 1438 1439 1441 1443 1437 1439 1443 1443 1458 1468 1459 1460 1459 1451 1451 1450 1450 1452 1445 1434 1427 1427 1433 1435 1436 1441 1444 1447 1451 1454 1459 1463 1466 1469
1495 1494 1493 1493 1492 1491 1490 1490 1490 1490 1491 1491 1489 1488 1489 1482 1469 1465 1468 1467 1465 1465 1462 1459 1458 1454 1448 1446 1443 1438 1439 1440 1437 1437 1437 1437 1438 1438 1437 1437 1437 1434 1431 1435 1437 1437 1441 1437 1432 1435 1434 1435 1438 1433 1432 1436 1442 1441 1434 1438 1441 1433 1439 1451 1451 1451 1449 1448 1453 1455 1450 1440 1434 1433 1429 1429 1432 1432 1435 1439 1442 1446 1449 1452 1457 1459 1463 1466
1494 1494 1494 1494 1493 1491 1490 1490 1490 1491 1491 1490 1489 1486 1481 1474 1469 1470 1470 1469 1469 1468 1464 1458 1452 1450 1446 1442 1439 1437 1440 1441 1438 1436 1436 1435 1435 1435 1434 1433 1435 1434 1429 1430 1433 1434 1437 1433 1428 1434 1434 1432 1435 1433 1431 1435 1438 1438 1437 1437 1434 1426 1429 1445 1455 1451 1450 1456 1456 1451 1447 1436 1433 1435 1431 1431 1433 1430 1434 1437 1439 1445 1448 1451 1454 1456 1459 1462
1494 1494 1494 1494 1493 1491 1491 1490 1490 1491 1491 1491 1491 1484 1476 1472 1470 1470 1470 1470 1469 1468 1466 1461 1452 1452 1451 1442 1436 1436 1439 1440 1438 1437 1437 1436 1435 1434 1433 1432 1434 1434 1429 1428 1430 1428 1430 1432 1431 1434 1437 1434 1434 1434 1433 1432 1430 1433 1437 1432 1429 1430 1430 1437 1453 1458 1460 1464 1453 1444 1446 1442 1440 1440 1432 1431 1433 1431 1433 1435 1437 1442 1445 1448 1451 1453 1456 1459
1493 1493 1494 1493 1492 1491 1491 1490 1491 1492 1492 1492 1491 1482 1475 1473 1470 1470 1471 1470 1468 1468 1468 1462 1455 1457 1455 1443 1436 1436 1437 1438 1437 1437 1436 1435 1435 1433 1432 1433 1434 1433 1431 1431 1431 1427 1426 1432 1434 1433 1435 1435 1434 1435 1438 1435 1429 1430 1430 1426 1430 1442 1442 1439 1449 1457 1462 1465 1454 1443 1442 1439 1435 1432 1429 1431 1432 1430 1431 1433 1435 1438 1441 1445 1447 1450 1454 1457
1492 1493 1493 1493 1492 1490 1490 1490 1491 1492 1493 1491 1487 1480 1474 1471 1468 1469 1470 1468 1468 1468 1466 1461 1458 1459 1457 1447 1440 1438 1436 1437 1436 1435 1435 1435 1436 1433 1430 1432 1434 1433 1433 1431 1429 1427 1426 1429 1434 1432 1431 1434 1434 1435 1439 1437 1434 1433 1431 1426 1428 1436 1439 1438 1440 1442 1449 1457 1455 1448 1444 1436 1427 1421 1423 1428 1428 1427 1430 1431 1432 1434 1437 1441 1443 1447 1451 1454
1493 1493 1492 1492 1491 1489 1489 1490 1491 1492 1491 1487 1482 1478 1473 1470 1467 1467 1467 1467 1467 1466 1463 1461 1459 1458 1455 1449 1443 1440 1437 1437 1435 1433 1433 1432 1433 1434 1431 1430 1431 1432 1434 1433 1430 1429 1427 1428 1432 1431 1428 1433 1436 1433 1432 1432 1434 1436 1434 1430 1431 1431 1429 1432 1433 1430 1434 1444 1449 1451 1449 1434 1418 1416 1420 1423 1423 1424 1426 1428 1430 1431 1433 1437 1440 1444 1447 1451
1493 1491 1491 1491 1491 1489 1489 1490 1490 1490 1488 1483 1479 1477 1474 1471 1467 1464 1463 1464 1465 1464 1462 1461 1460 1458 1454 1448 1444 1442 1439 1437 1434 1431 1431 1430 1429 1431 1430 1429 1429 1429 1432 1435 1432 1430 1429 1427 1429 1431 1429 1431 1432 1428 1425 1425 1427 1431 1431 1428 1430 1430 1429 1436 1438 1430 1427 1433 1435 1443 1448 1430 1412 1413 1418 1419 1420 1420 1421 1424 1426 1427 1430 1434 1438 1442 1445 1449
1492 1491 1491 1491 1490 1489 1489 1489 1487 1487 1486 1482 1479 1476 1473 1470 1467 1462 1461 1461 1461 1461 1460 1460 1459 1456 1453 1449 1447 1445 1440 1435 1433 1430 1428 1427 1426 1425 1426 1428 1428 1428 1431 1433 1430 1429 1429 1427 1427 1430 1429 1426 1424 1424 1425 1424 1423 1426 1428 1425 1424 1426 1427 1434 1439 1433 1431 1432 1427 1432 1442 1428 1412 1413 1416 1415 1417 1418 1419 1421 1423 1425 1429 1433 1437 1441 1445 1448
1494 1492 1491 1491 1490 1490 1490 1486 1483 1483 1483 1479 1476 1474 1471 1468 1466 1462 1460 1460 1459 1459 1459 1458 1457 1455 1453 1452 1451 1447 1440 1435 1432 1428 1425 1423 1422 1422 1424 1428 1429 1428 1429 1430 1429 1431 1432 1428 1425 1427 1425 1421 1420 1424 1425 1423 1424 1426 1426 1422 1421 1422 1423 1426 1427 1427 1433 1435 1431 1439 1446 1430 1414 1415 1415 1415 1417 1418 1421 1424 1425 1428 1432 1434 1438 1440 1444 1447
1494 1492 1492 1491 1490 1490 1490 1487 1484 1483 1481 1477 1474 1471 1468 1466 1465 1462 1461 1459 1458 1458 1458 1457 1455 1454 1454 1455 1454 1447 1441 1438 1433 1427 1425 1423 1421 1423 1425 1427 1428 1427 1428 1428 1429 1431 1432 1426 1423 1427 1431 1431 1431 1432 1431 1427 1424 1423 1422 1421 1420 1419 1422 1425 1423 1424 1433 1433 1430 1442 1445 1427 1415 1417 1416 1416 1418 1419 1422 1425 1427 1430 1432 1434 1437 1440 1443 1446
1493 1491 1490 1490 1490 1490 1489 1487 1487 1486 1482 1480 1476 1470 1466 1464 1462 1461 1460 1458 1458 1458 1457 1456 1454 1453 1454 1454 1452 1446 1441 1441 1436 1430 1428 1425 1422 1424 1427 1428 1428 1426 1426 1428 1429 1430 1430 1426 1423 1426 1433 1437 1436 1432 1429 1425 1423 1422 1420 1420 1421 1420 1421 1425 1427 1432 1438 1433 1427 1434 1435 1422 1415 1417 1417 1417 1419 1420 1422 1424 1426 1429 1431 1432 1435 1438 1441 1443
1493 1489 1488 1488 1489 1489 1489 1487 1487 1487 1484 1482 1479 1471 1466 1464 1460 1458 1458 1456 1457 1457 1457 1455 1453 1453 1452 1450 1449 1445 1439 1437 1436 1432 1428 1426 1423 1424 1426 1428 1428 1426 1427 1429 1430 1430 1429 1426 1423 1423 1424 1423 1421 1418 1416 1418 1422 1424 1423 1421 1421 1422 1420 1423 1430 1433 1433 1431 1428 1426 1425 1422 1416 1413 1413 1414 1417 1419 1421 1423 1425 1427 1429 1431 1433 1436 1438 1441
1494 1491 1490 1490 1488 1487 1486 1486 1486 1486 1484 1483 1480 1473 1469 1466 1460 1457 1456 1454 1455 1457 1457 1456 1455 1453 1449 1447 1449 1446 1438 1434 1435 1433 1431 1427 1423 1424 1426 1427 1427 1427 1428 1430 1430 1429 1429 1427 1423 1423 1421 1415 1411 1410 1412 1415 1419 1421 1422 1422 1422 1423 1423 1425 1430 1428 1426 1432 1432 1423 1421 1425 1418 1409 1409 1411 1414 1417 1419 1421 1423 1425 1427 1430 1432 1435 1437 1439
1494 1493 1494 1495 1491 1486 1485 1485 1485 1484 1482 1482 1480 1475 1471 1467 1462 1459 1456 1453 1453 1455 1456 1456 1455 1453 1449 1449 1451 1446 1438 1435 1434 1435 1435 1430 1425 1424 1425 1426 1426 1427 1429 1429 1428 1428 1428 1426 1422 1422 1422 1416 1412 1413 1414 1414 1415 1415 1417 1420 1420 1422 1424 1426 1428 1426 1424 1430 1430 1421 1420 1425 1419 1409 1407 1410 1414 1417 1418 1420 1422 1424 1426 1428 1430 1433 1436 1438
1497 1496 1495 1495 1493 1488 1487 1486 1485 1483 1480 1478 1476 1473 1469 1466 1463 1459 1456 1454 1451 1451 1454 1455 1453 1452 1451 1449 1450 1444 1437 1435 1437 1438 1437 1433 1427 1425 1424 1426 1426 1426 1427 1428 1426 1427 1427 1425 1423 1423 1422 1417 1414 1414 1414 1414 1416 1415 1413 1414 1416 1418 1420 1423 1426 1425 1424 1427 1425 1420 1421 1423 1418 1410 1408 1412 1416 1417 1418 1420 1422 1423 1425 1427 1428 1431 1433 1436
1501 1499 1497 1496 1492 1488 1487 1486 1484 1482 1477 1473 1471 1469 1466 1465 1461 1457 1454 1454 1451 1448 1450 1451 1449 1451 1452 1449 1449 1445 1437 1436 1439 1438 1435 1433 1430 1426 1423 1423 1423 1424 1427 1426 1425 1427 1428 1426 1423 1423 1422 1418 1414 1413 1414 1415 1416 1416 1414 1412 1412 1416 1418 1421 1423 1423 1425 1427 1425 1423 1424 1422 1415 1410 1410 1414 1416 1417 1418 1420 1421 1422 1424 1426 1427 1429 1431 1434
1502 1502 1500 1498 1491 1485 1484 1483 1482 1480 1474 1470 1470 1468 1465 1463 1460 1457 1452 1449 1449 1448 1447 1446 1444 1447 1449 1448 1449 1446 1439 1437 1437 1434 1432 1432 1431 1428 1425 1423 1421 1423 1426 1425 1425 1427 1428 1426 1422 1422 1424 1420 1414 1416 1417 1414 1414 1417 1416 1412 1410 1413 1417 1419 1420 1422 1423 1425 1426 1427 1427 1421 1413 1411 1412 1413 1414 1416 1417 1418 1419 1421 1423 1424 1426 1427 1429 1431
1503 1501 1500 1500 1493 1485 1481 1480 1479 1477 1473 1470 1470 1469 1466 1463 1459 1457 1453 1448 1447 1447 1445 1443 1442 1442 1443 1444 1443 1441 1437 1435 1433 1432 1431 1431 1429 1428 1428 1426 1424 1423 1423 1424 1425 1425 1426 1426 1422 1422 1426 1422 1415 1417 1416 1414 1420 1420 1412 1407 1408 1410 1413 1416 1417 1419 1419 1421 1425 1426 1422 1416 1411 1411 1412 1412 1413 1414 1415 1416 1419 1420 1422 1424 1425 1426 1428 1429